﻿測定場所 (Monitoring sites),日付 (Measurement date),時間 (Measurement time),線量率 最大値 (max) μGy/h,線量率 最小値 (min) μGy/h,線量率 平均値 (average) μGy/h,
新宿 (Shinjuku),2015-01-25,23:01～24:00,0.0357,0.0301,0.0330,
新宿 (Shinjuku),2015-01-25,22:01～23:00,0.0346,0.0305,0.0327,
新宿 (Shinjuku),2015-01-25,21:01～22:00,0.0354,0.0301,0.0331,
新宿 (Shinjuku),2015-01-25,20:01～21:00,0.0350,0.0309,0.0328,
新宿 (Shinjuku),2015-01-25,19:01～20:00,0.0347,0.0305,0.0328,
新宿 (Shinjuku),2015-01-25,18:01～19:00,0.0352,0.0313,0.0329,
新宿 (Shinjuku),2015-01-25,17:01～18:00,0.0354,0.0308,0.0328,
新宿 (Shinjuku),2015-01-25,16:01～17:00,0.0348,0.0310,0.0329,
新宿 (Shinjuku),2015-01-25,15:01～16:00,0.0352,0.0311,0.0331,
新宿 (Shinjuku),2015-01-25,14:01～15:00,0.0350,0.0311,0.0333,
新宿 (Shinjuku),2015-01-25,13:01～14:00,0.0352,0.0313,0.0334,
新宿 (Shinjuku),2015-01-25,12:01～13:00,0.0363,0.0320,0.0337,
新宿 (Shinjuku),2015-01-25,11:01～12:00,0.0351,0.0317,0.0336,
新宿 (Shinjuku),2015-01-25,10:01～11:00,0.0355,0.0317,0.0336,
新宿 (Shinjuku),2015-01-25,09:01～10:00,0.0355,0.0325,0.0338,
新宿 (Shinjuku),2015-01-25,08:01～09:00,0.0363,0.0324,0.0342,
新宿 (Shinjuku),2015-01-25,07:01～08:00,0.0366,0.0314,0.0340,
新宿 (Shinjuku),2015-01-25,06:01～07:00,0.0356,0.0321,0.0338,
新宿 (Shinjuku),2015-01-25,05:01～06:00,0.0357,0.0321,0.0337,
新宿 (Shinjuku),2015-01-25,04:01～05:00,0.0355,0.0323,0.0340,
新宿 (Shinjuku),2015-01-25,03:01～04:00,0.0362,0.0326,0.0341,
新宿 (Shinjuku),2015-01-25,02:01～03:00,0.0355,0.0317,0.0337,
新宿 (Shinjuku),2015-01-25,01:01～02:00,0.0364,0.0320,0.0341,
新宿 (Shinjuku),2015-01-25,00:01～01:00,0.0356,0.0316,0.0331,
新宿 (Shinjuku),2015-01-24,23:01～24:00,0.0358,0.0307,0.0331,
新宿 (Shinjuku),2015-01-24,22:01～23:00,0.0349,0.0316,0.0330,
新宿 (Shinjuku),2015-01-24,21:01～22:00,0.0357,0.0308,0.0331,
新宿 (Shinjuku),2015-01-24,20:01～21:00,0.0347,0.0313,0.0330,
新宿 (Shinjuku),2015-01-24,19:01～20:00,0.0360,0.0308,0.0331,
新宿 (Shinjuku),2015-01-24,18:01～19:00,0.0356,0.0303,0.0326,
新宿 (Shinjuku),2015-01-24,17:01～18:00,0.0346,0.0309,0.0327,
新宿 (Shinjuku),2015-01-24,16:01～17:00,0.0347,0.0307,0.0328,
新宿 (Shinjuku),2015-01-24,15:01～16:00,0.0358,0.0307,0.0329,
新宿 (Shinjuku),2015-01-24,14:01～15:00,0.0349,0.0298,0.0328,
新宿 (Shinjuku),2015-01-24,13:01～14:00,0.0346,0.0308,0.0329,
新宿 (Shinjuku),2015-01-24,12:01～13:00,0.0356,0.0310,0.0331,
新宿 (Shinjuku),2015-01-24,11:01～12:00,0.0351,0.0307,0.0329,
新宿 (Shinjuku),2015-01-24,10:01～11:00,0.0351,0.0306,0.0329,
新宿 (Shinjuku),2015-01-24,09:01～10:00,0.0361,0.0301,0.0329,
新宿 (Shinjuku),2015-01-24,08:01～09:00,0.0352,0.0311,0.0328,
新宿 (Shinjuku),2015-01-24,07:01～08:00,0.0350,0.0310,0.0331,
新宿 (Shinjuku),2015-01-24,06:01～07:00,0.0358,0.0304,0.0327,
新宿 (Shinjuku),2015-01-24,05:01～06:00,0.0347,0.0308,0.0328,
新宿 (Shinjuku),2015-01-24,04:01～05:00,0.0356,0.0310,0.0327,
新宿 (Shinjuku),2015-01-24,03:01～04:00,0.0353,0.0310,0.0329,
新宿 (Shinjuku),2015-01-24,02:01～03:00,0.0347,0.0310,0.0328,
新宿 (Shinjuku),2015-01-24,01:01～02:00,0.0345,0.0303,0.0326,
新宿 (Shinjuku),2015-01-24,00:01～01:00,0.0346,0.0305,0.0328,
新宿 (Shinjuku),2015-01-23,23:01～24:00,0.0346,0.0303,0.0326,
新宿 (Shinjuku),2015-01-23,22:01～23:00,0.0354,0.0300,0.0328,
新宿 (Shinjuku),2015-01-23,21:01～22:00,0.0349,0.0304,0.0329,
新宿 (Shinjuku),2015-01-23,20:01～21:00,0.0348,0.0302,0.0327,
新宿 (Shinjuku),2015-01-23,19:01～20:00,0.0346,0.0309,0.0329,
新宿 (Shinjuku),2015-01-23,18:01～19:00,0.0342,0.0305,0.0326,
新宿 (Shinjuku),2015-01-23,17:01～18:00,0.0346,0.0309,0.0326,
新宿 (Shinjuku),2015-01-23,16:01～17:00,0.0349,0.0304,0.0326,
新宿 (Shinjuku),2015-01-23,15:01～16:00,0.0348,0.0306,0.0327,
新宿 (Shinjuku),2015-01-23,14:01～15:00,0.0352,0.0304,0.0328,
新宿 (Shinjuku),2015-01-23,13:01～14:00,0.0360,0.0303,0.0331,
新宿 (Shinjuku),2015-01-23,12:01～13:00,0.0358,0.0307,0.0332,
新宿 (Shinjuku),2015-01-23,11:01～12:00,0.0351,0.0314,0.0334,
新宿 (Shinjuku),2015-01-23,10:01～11:00,0.0358,0.0308,0.0332,
新宿 (Shinjuku),2015-01-23,09:01～10:00,0.0350,0.0305,0.0333,
新宿 (Shinjuku),2015-01-23,08:01～09:00,0.0361,0.0315,0.0334,
新宿 (Shinjuku),2015-01-23,07:01～08:00,0.0359,0.0313,0.0336,
新宿 (Shinjuku),2015-01-23,06:01～07:00,0.0367,0.0328,0.0348,
新宿 (Shinjuku),2015-01-23,05:01～06:00,0.0400,0.0333,0.0364,
新宿 (Shinjuku),2015-01-23,04:01～05:00,0.0497,0.0372,0.0431,
新宿 (Shinjuku),2015-01-23,03:01～04:00,0.0515,0.0453,0.0485,
新宿 (Shinjuku),2015-01-23,02:01～03:00,0.0487,0.0389,0.0440,
新宿 (Shinjuku),2015-01-23,01:01～02:00,0.0440,0.0367,0.0404,
新宿 (Shinjuku),2015-01-23,00:01～01:00,0.0415,0.0352,0.0378,
新宿 (Shinjuku),2015-01-22,23:01～24:00,0.0393,0.0319,0.0344,
新宿 (Shinjuku),2015-01-22,22:01～23:00,0.0350,0.0317,0.0335,
新宿 (Shinjuku),2015-01-22,21:01～22:00,0.0364,0.0316,0.0341,
新宿 (Shinjuku),2015-01-22,20:01～21:00,0.0363,0.0317,0.0345,
新宿 (Shinjuku),2015-01-22,19:01～20:00,0.0357,0.0315,0.0338,
新宿 (Shinjuku),2015-01-22,18:01～19:00,0.0368,0.0313,0.0347,
新宿 (Shinjuku),2015-01-22,17:01～18:00,0.0375,0.0335,0.0358,
新宿 (Shinjuku),2015-01-22,16:01～17:00,0.0389,0.0343,0.0364,
新宿 (Shinjuku),2015-01-22,15:01～16:00,0.0404,0.0339,0.0361,
新宿 (Shinjuku),2015-01-22,14:01～15:00,0.0417,0.0354,0.0381,
新宿 (Shinjuku),2015-01-22,13:01～14:00,0.0422,0.0363,0.0380,
新宿 (Shinjuku),2015-01-22,12:01～13:00,0.0402,0.0356,0.0378,
新宿 (Shinjuku),2015-01-22,11:01～12:00,0.0398,0.0340,0.0369,
新宿 (Shinjuku),2015-01-22,10:01～11:00,0.0386,0.0340,0.0360,
新宿 (Shinjuku),2015-01-22,09:01～10:00,0.0366,0.0318,0.0340,
新宿 (Shinjuku),2015-01-22,08:01～09:00,0.0356,0.0313,0.0338,
新宿 (Shinjuku),2015-01-22,07:01～08:00,0.0357,0.0312,0.0332,
新宿 (Shinjuku),2015-01-22,06:01～07:00,0.0355,0.0313,0.0334,
新宿 (Shinjuku),2015-01-22,05:01～06:00,0.0350,0.0312,0.0331,
新宿 (Shinjuku),2015-01-22,04:01～05:00,0.0360,0.0307,0.0330,
新宿 (Shinjuku),2015-01-22,03:01～04:00,0.0350,0.0318,0.0332,
新宿 (Shinjuku),2015-01-22,02:01～03:00,0.0351,0.0314,0.0334,
新宿 (Shinjuku),2015-01-22,01:01～02:00,0.0365,0.0315,0.0336,
新宿 (Shinjuku),2015-01-22,00:01～01:00,0.0354,0.0307,0.0331,
新宿 (Shinjuku),2015-01-21,23:01～24:00,0.0355,0.0307,0.0329,
新宿 (Shinjuku),2015-01-21,22:01～23:00,0.0357,0.0307,0.0331,
新宿 (Shinjuku),2015-01-21,21:01～22:00,0.0353,0.0317,0.0332,
新宿 (Shinjuku),2015-01-21,20:01～21:00,0.0357,0.0315,0.0338,
新宿 (Shinjuku),2015-01-21,19:01～20:00,0.0364,0.0323,0.0344,
新宿 (Shinjuku),2015-01-21,18:01～19:00,0.0395,0.0334,0.0357,
新宿 (Shinjuku),2015-01-21,17:01～18:00,0.0385,0.0334,0.0361,
新宿 (Shinjuku),2015-01-21,16:01～17:00,0.0399,0.0335,0.0363,
新宿 (Shinjuku),2015-01-21,15:01～16:00,0.0395,0.0333,0.0362,
新宿 (Shinjuku),2015-01-21,14:01～15:00,0.0389,0.0324,0.0353,
新宿 (Shinjuku),2015-01-21,13:01～14:00,0.0360,0.0320,0.0344,
新宿 (Shinjuku),2015-01-21,12:01～13:00,0.0359,0.0317,0.0337,
新宿 (Shinjuku),2015-01-21,11:01～12:00,0.0367,0.0315,0.0336,
新宿 (Shinjuku),2015-01-21,10:01～11:00,0.0358,0.0318,0.0341,
新宿 (Shinjuku),2015-01-21,09:01～10:00,0.0369,0.0331,0.0346,
新宿 (Shinjuku),2015-01-21,08:01～09:00,0.0364,0.0313,0.0339,
新宿 (Shinjuku),2015-01-21,07:01～08:00,0.0354,0.0306,0.0331,
新宿 (Shinjuku),2015-01-21,06:01～07:00,0.0358,0.0315,0.0333,
新宿 (Shinjuku),2015-01-21,05:01～06:00,0.0351,0.0306,0.0332,
新宿 (Shinjuku),2015-01-21,04:01～05:00,0.0350,0.0302,0.0329,
新宿 (Shinjuku),2015-01-21,03:01～04:00,0.0357,0.0312,0.0329,
新宿 (Shinjuku),2015-01-21,02:01～03:00,0.0354,0.0309,0.0332,
新宿 (Shinjuku),2015-01-21,01:01～02:00,0.0348,0.0310,0.0330,
新宿 (Shinjuku),2015-01-21,00:01～01:00,0.0350,0.0310,0.0331,
新宿 (Shinjuku),2015-01-20,23:01～24:00,0.0352,0.0312,0.0332,
新宿 (Shinjuku),2015-01-20,22:01～23:00,0.0349,0.0312,0.0331,
新宿 (Shinjuku),2015-01-20,21:01～22:00,0.0359,0.0315,0.0335,
新宿 (Shinjuku),2015-01-20,20:01～21:00,0.0358,0.0308,0.0332,
新宿 (Shinjuku),2015-01-20,19:01～20:00,0.0345,0.0312,0.0329,
新宿 (Shinjuku),2015-01-20,18:01～19:00,0.0356,0.0312,0.0330,
新宿 (Shinjuku),2015-01-20,17:01～18:00,0.0349,0.0309,0.0332,
新宿 (Shinjuku),2015-01-20,16:01～17:00,0.0353,0.0314,0.0336,
新宿 (Shinjuku),2015-01-20,15:01～16:00,0.0362,0.0318,0.0337,
新宿 (Shinjuku),2015-01-20,14:01～15:00,0.0361,0.0319,0.0337,
新宿 (Shinjuku),2015-01-20,13:01～14:00,0.0367,0.0314,0.0342,
新宿 (Shinjuku),2015-01-20,12:01～13:00,0.0356,0.0322,0.0338,
新宿 (Shinjuku),2015-01-20,11:01～12:00,0.0365,0.0321,0.0339,
新宿 (Shinjuku),2015-01-20,10:01～11:00,0.0367,0.0313,0.0342,
新宿 (Shinjuku),2015-01-20,09:01～10:00,0.0361,0.0319,0.0340,
新宿 (Shinjuku),2015-01-20,08:01～09:00,0.0361,0.0325,0.0341,
新宿 (Shinjuku),2015-01-20,07:01～08:00,0.0358,0.0318,0.0338,
新宿 (Shinjuku),2015-01-20,06:01～07:00,0.0366,0.0318,0.0339,
新宿 (Shinjuku),2015-01-20,05:01～06:00,0.0367,0.0321,0.0339,
新宿 (Shinjuku),2015-01-20,04:01～05:00,0.0362,0.0313,0.0337,
新宿 (Shinjuku),2015-01-20,03:01～04:00,0.0358,0.0319,0.0337,
新宿 (Shinjuku),2015-01-20,02:01～03:00,0.0354,0.0317,0.0337,
新宿 (Shinjuku),2015-01-20,01:01～02:00,0.0356,0.0315,0.0335,
新宿 (Shinjuku),2015-01-20,00:01～01:00,0.0352,0.0305,0.0335,
新宿 (Shinjuku),2015-01-19,23:01～24:00,0.0354,0.0317,0.0336,
新宿 (Shinjuku),2015-01-19,22:01～23:00,0.0355,0.0320,0.0335,
新宿 (Shinjuku),2015-01-19,21:01～22:00,0.0358,0.0309,0.0333,
新宿 (Shinjuku),2015-01-19,20:01～21:00,0.0353,0.0310,0.0332,
新宿 (Shinjuku),2015-01-19,19:01～20:00,0.0355,0.0311,0.0334,
新宿 (Shinjuku),2015-01-19,18:01～19:00,0.0364,0.0316,0.0336,
新宿 (Shinjuku),2015-01-19,17:01～18:00,0.0349,0.0316,0.0333,
新宿 (Shinjuku),2015-01-19,16:01～17:00,0.0349,0.0311,0.0334,
新宿 (Shinjuku),2015-01-19,15:01～16:00,0.0356,0.0317,0.0336,
新宿 (Shinjuku),2015-01-19,14:01～15:00,0.0357,0.0312,0.0337,
新宿 (Shinjuku),2015-01-19,13:01～14:00,0.0356,0.0318,0.0336,
新宿 (Shinjuku),2015-01-19,12:01～13:00,0.0353,0.0319,0.0334,
新宿 (Shinjuku),2015-01-19,11:01～12:00,0.0366,0.0316,0.0339,
新宿 (Shinjuku),2015-01-19,10:01～11:00,0.0363,0.0321,0.0338,
新宿 (Shinjuku),2015-01-19,09:01～10:00,0.0362,0.0323,0.0342,
新宿 (Shinjuku),2015-01-19,08:01～09:00,0.0369,0.0320,0.0343,
新宿 (Shinjuku),2015-01-19,07:01～08:00,0.0358,0.0316,0.0340,
新宿 (Shinjuku),2015-01-19,06:01～07:00,0.0358,0.0316,0.0336,
新宿 (Shinjuku),2015-01-19,05:01～06:00,0.0353,0.0313,0.0333,
新宿 (Shinjuku),2015-01-19,04:01～05:00,0.0355,0.0314,0.0330,
新宿 (Shinjuku),2015-01-19,03:01～04:00,0.0343,0.0311,0.0329,
新宿 (Shinjuku),2015-01-19,02:01～03:00,0.0354,0.0313,0.0331,
新宿 (Shinjuku),2015-01-19,01:01～02:00,0.0356,0.0303,0.0329,
新宿 (Shinjuku),2015-01-19,00:01～01:00,0.0342,0.0304,0.0327,
